Find Starlink 38243

NORAD ID: 100253 Int'l Des: 2026-181 Owner: SPXS Country: US Constellation: starlink operational

当前视图

正在加载3D地球...

About Starlink 38243

Starlink 38243 (NORAD 100253) is a starlink constellation satellite launched Aug 8, 2026 by SPXS of US. with a mass of 575.00 kg.

即将过境

Passes for default location (London). Set your location on the main map for personalized predictions.

高度历史

Loading altitude history...

两行轨道根数

1 A0253U 26181H 26262.90858803 .00170525 00000-0 11190-2 0 9991
2 A0253 97.2853 306.4182 0001344 49.4894 310.6488 15.75240243 7325
Epoch: Sep 19, 2026 • Age: 17 hours

当前状态

高度 345.0 km
远地点 / 近地点 N/A
速度 7.70 km/s
星下点 8.52°N, 87.39°E
发射日期 Aug 8, 2026
运行时间 0.1 years
类型 internet

技术详情

分类 Payload
质量 575.00 kg
干质量 530.00 kg
长度 0.30 m
跨度 29.00 m
形状 ? Box + pan
制造商 SPXS
平台类型 Starlink V2MO
阶段状态 In Orbit
所有者/国家 SPXS/US

Most Searched